TimeCDT,TemperatureF,Dew PointF,Humidity,Sea Level PressureIn,VisibilityMPH,Wind Direction,Wind SpeedMPH,Gust SpeedMPH,PrecipitationIn,Events,Conditions,WindDirDegrees,DateUTC
12:55 AM,49.8,47.1,90,30.22,10.0,SSE,5.8,-,N/A,,Clear,150,2012-04-18 05:55:00
1:55 AM,47.5,46.6,97,30.21,10.0,SSE,8.1,-,N/A,,Clear,150,2012-04-18 06:55:00
2:55 AM,47.5,46.8,97,30.20,10.0,SSE,5.8,-,N/A,,Clear,150,2012-04-18 07:55:00
3:55 AM,46.2,46.0,99,30.19,10.0,South,4.6,-,N/A,,Clear,170,2012-04-18 08:55:00
4:55 AM,47.3,46.9,99,30.18,10.0,SSW,4.6,-,N/A,,Clear,200,2012-04-18 09:55:00
5:55 AM,45.9,45.7,99,30.17,10.0,South,4.6,-,N/A,,Clear,170,2012-04-18 10:55:00
6:55 AM,44.8,44.4,99,30.18,10.0,SSE,5.8,-,N/A,,Clear,160,2012-04-18 11:55:00
7:55 AM,49.8,47.8,93,30.19,10.0,SSE,4.6,-,N/A,,Clear,160,2012-04-18 12:55:00
8:55 AM,58.8,47.8,67,30.19,10.0,SSW,6.9,-,N/A,,Clear,210,2012-04-18 13:55:00
9:55 AM,62.6,45.9,54,30.19,10.0,SSW,9.2,-,N/A,,Clear,210,2012-04-18 14:55:00
10:55 AM,66.4,44.1,44,30.18,10.0,South,6.9,-,N/A,,Clear,180,2012-04-18 15:55:00
11:55 AM,69.3,43.2,39,30.16,10.0,Variable,6.9,-,N/A,,Clear,0,2012-04-18 16:55:00
12:55 PM,71.1,41.7,35,30.12,10.0,South,6.9,-,N/A,,Clear,190,2012-04-18 17:55:00
1:55 PM,72.3,45.0,37,30.10,10.0,South,10.4,-,N/A,,Clear,170,2012-04-18 18:55:00
2:55 PM,73.0,44.6,36,30.07,9.0,SSE,6.9,-,N/A,,Clear,160,2012-04-18 19:55:00
3:55 PM,73.0,45.3,37,30.05,10.0,Variable,6.9,-,N/A,,Clear,0,2012-04-18 20:55:00
4:55 PM,73.2,45.7,37,30.03,10.0,Variable,3.5,-,N/A,,Clear,0,2012-04-18 21:55:00
5:55 PM,72.5,43.9,36,30.02,10.0,SSW,6.9,-,N/A,,Clear,200,2012-04-18 22:55:00
6:55 PM,70.3,45.9,41,30.01,10.0,SSE,8.1,-,N/A,,Clear,160,2012-04-18 23:55:00
7:55 PM,64.9,46.2,51,30.01,10.0,South,5.8,-,N/A,,Clear,170,2012-04-19 00:55:00
8:55 PM,61.5,46.4,58,30.00,10.0,South,5.8,-,N/A,,Clear,170,2012-04-19 01:55:00
9:55 PM,61.0,43.7,53,30.00,10.0,South,8.1,-,N/A,,Clear,180,2012-04-19 02:55:00
10:55 PM,59.4,43.7,56,29.99,10.0,SSE,10.4,-,N/A,,Clear,150,2012-04-19 03:55:00
11:55 PM,57.7,45.9,65,29.98,10.0,SSE,6.9,-,N/A,,Clear,160,2012-04-19 04:55:00